Hourly Data Report for July 02, 2021

FISHER BRANCH (AUT)
MANITOBA
Current Station Operator: ECCC - MSC

51°05'00.100" N
97°33'16.200" W
253.00 m
50309J6
71442
WSZ

Download Data

Hourly Data (July 2021)
Hourly Data Report for July 2, 2021
TIME
LST
Temp Definition
°C
Dew Point Definition
°C
Rel Hum Definition
%
Precip. Amount Definition
mm

Wind Dir Definition
10's deg

Wind Spd Definition
km/h
Visibility Definition
km
Stn Press Definition
kPa
Hmdx Definition


Wind Chill Definition


Weather Definition


00:00 18.9 10.2 57 0.0 20 11   98.83     LegendNANA
01:00 15.1 9.2 68 0.0 18 5   98.83     LegendNANA
02:00 15.3 9.0 66 0.0 18 5   98.78     LegendNANA
03:00 15.7 8.7 63 0.0 21 4   98.74     LegendNANA
04:00 13.0 10.3 84 0.0 21 3   98.74     LegendNANA
05:00 11.6 8.8 83 0.0 13 5   98.76     LegendNANA
06:00 16.0 11.5 74 0.0 14 4   98.84     LegendNANA
07:00 20.6 14.7 69 0.0 19 5   98.85     LegendNANA
08:00 23.8 16.7 64 0.0 18 7   98.84 29   LegendNANA
09:00 27.7 13.2 41 0.0 19 10   98.81 31   LegendNANA
10:00 29.5 13.3 37 0.0 18 7   98.76 32   LegendNANA
11:00 30.8 10.2 28 0.0 19 6   98.71 32   LegendNANA
12:00 31.9 10.6 27 0.0 20 13   98.66 33   LegendNANA
13:00 32.6 11.2 27 0.0 21 10   98.61 34   LegendNANA
14:00 33.7 11.2 25 0.0 22 9   98.57 36   LegendNANA
15:00 33.8 11.3 25 0.0 25 15   98.49 36   LegendNANA
16:00 34.1 11.9 26 0.0 19 14   98.44 36   LegendNANA
17:00 33.4 10.0 24 0.0 20 13   98.40 35   LegendNANA
18:00 33.1 12.0 28 0.0 22 11   98.35 35   LegendNANA
19:00 31.7 14.5 35 0.0 19 11   98.30 35   LegendNANA
20:00 29.1 16.4 46 0.0 18 6   98.29 34   LegendNANA
21:00 24.9 15.6 56 0.0 15 8   98.27 29   LegendNANA
22:00 23.9 15.7 60 0.0 16 8   98.27 28   LegendNANA
23:00 24.4 15.5 58 0.0 17 11   98.25 29   LegendNANA

Notes on Data Quality.

Legend

  • E = Estimated
  • M = Missing
  • NA = Not Available*
  • [empty] = Indicates an unobserved value
Date modified: